sat.trackr.live / text

‹ back to catalog

BEIDOU-3S IGSO-1S (C31)

NORAD 40549 · 2015-019A

PAYLOAD INACTIVE UNKNOWN

§ Identity

Operator
Country
PRC
Launch date
2015-03-30
Launch site
XICLF
Launch vehicle
Mass (kg)
RCS (m²)
11.79

Purposes: comms, nav

External: N2YO · Heavens-Above · Gunter

§ Orbital elements

Epoch: 2026-09-16T01:27:51.734016Z

Period
1,435.85 min
Inclination
49.0213°
Eccentricity
0.0038861
Mean motion
1.00288882 rev/d
Perigee alt
35,618.0 km
Apogee alt
35,945.6 km
Semi-major
42,159.9 km
B*
0.0000e+0
RAAN
294.3587°
Arg perigee
201.0354°
Mean anomaly
337.5544°
Rev number
4,198

§ Raw data

BEIDOU-3S IGSO-1S (C31)1 40549U 15019A   26259.06101544 -.00000163  00000+0  00000+0 0  99922 40549  49.0213 294.3587 0038861 201.0354 337.5544  1.00288882 41982

JSON: /api/v1/satellites/40549 · /tle

For live sub-satellite position, see the globe view (requires WebGL).

§ Visibility from observer

Set your observer location to see the next 7 days of passes ≥ 10°. The values pass through the URL so the page stays shareable.

No JS? Fill the form by hand. The geolocation button needs JavaScript.